Météo par heure à Kistel'nytsya

Ce jour, 4 Mars, Jeudi

Heure Température Précipitation Vent Pression Humidité
00:00 +4°C° 0 mm 1 m/s 754 mmHg 65%
01:00 +2°C° 0 mm 2 m/s 753 mmHg 67%
02:00 +2°C° 0 mm 2 m/s 753 mmHg 69%
03:00 +1°C° 0 mm 3 m/s 752 mmHg 71%
04:00 +1°C° 0 mm 3 m/s 752 mmHg 73%
05:00 0°C° 0 mm 3 m/s 751 mmHg 75%
06:00 +1°C° 0 mm 3 m/s 751 mmHg 77%
07:00 0°C° 0 mm 4 m/s 750 mmHg 79%
08:00 +1°C° 0 mm 4 m/s 750 mmHg 81%
09:00 +4°C° 0 mm 4 m/s 749 mmHg 76%
10:00 +6°C° 0 mm 5 m/s 749 mmHg 70%
11:00 +8°C° 0 mm 5 m/s 748 mmHg 65%
12:00 +9°C° 0 mm 5 m/s 748 mmHg 60%
13:00 +10°C° 0 mm 5 m/s 747 mmHg 56%
14:00 +12°C° 0 mm 5 m/s 747 mmHg 51%
15:00 +12°C° 0 mm 4 m/s 746 mmHg 52%
16:00 +12°C° 0 mm 3 m/s 745 mmHg 53%
17:00 +13°C° 0 mm 2 m/s 745 mmHg 53%
18:00 +10°C° 0 mm 2 m/s 745 mmHg 55%
19:00 +9°C° 0 mm 2 m/s 745 mmHg 57%
20:00 +8°C° 0 mm 2 m/s 744 mmHg 58%
21:00 +8°C° 0 mm 2 m/s 744 mmHg 60%
22:00 +8°C° 0 mm 2 m/s 744 mmHg 61%
23:00 +7°C° 0 mm 2 m/s 744 mmHg 63%

Demain, 5 Mars, Vendredi

Heure Température Précipitation Vent Pression Humidité
00:00 +7°C° 0 mm 2 m/s 744 mmHg 65%
01:00 +8°C° 0 mm 1 m/s 744 mmHg 67%
02:00 +7°C° 0 mm 1 m/s 744 mmHg 69%
03:00 +7°C° 0 mm 1 m/s 743 mmHg 69%
04:00 +6°C° 0 mm 1 m/s 743 mmHg 69%
05:00 +6°C° 0 mm 1 m/s 742 mmHg 69%
06:00 +6°C° 0 mm 1 m/s 742 mmHg 68%
07:00 +7°C° 0 mm 1 m/s 742 mmHg 67%
08:00 +7°C° 0 mm 1 m/s 742 mmHg 66%
09:00 +9°C° 0 mm 1 m/s 742 mmHg 60%
10:00 +9°C° 0 mm 2 m/s 742 mmHg 54%
11:00 +12°C° 0 mm 2 m/s 742 mmHg 48%
12:00 +12°C° 0 mm 3 m/s 742 mmHg 46%
13:00 +13°C° 0 mm 4 m/s 742 mmHg 44%
14:00 +14°C° 0 mm 5 m/s 743 mmHg 42%
15:00 +13°C° 0 mm 5 m/s 743 mmHg 48%
16:00 +12°C° 0 mm 5 m/s 743 mmHg 55%
17:00 +9°C° 0 mm 6 m/s 743 mmHg 62%
18:00 +8°C° 0 mm 6 m/s 744 mmHg 67%
19:00 +5°C° 0 mm 6 m/s 745 mmHg 73%
20:00 +3°C° 0 mm 6 m/s 746 mmHg 78%
21:00 +3°C° 0.2 mm 6 m/s 746 mmHg 78%
22:00 +2°C° 0.2 mm 6 m/s 747 mmHg 78%
23:00 +2°C° 0.2 mm 5 m/s 748 mmHg 78%

Après-demain, 6 Mars, Samedi

Heure Température Précipitation Vent Pression Humidité
00:00 +1°C° 0 mm 5 m/s 748 mmHg 76%
01:00 +1°C° 0 mm 5 m/s 749 mmHg 75%
02:00 0°C° 0 mm 5 m/s 749 mmHg 74%
03:00 0°C° 0 mm 5 m/s 749 mmHg 75%
04:00 -1°C° 0 mm 4 m/s 750 mmHg 75%
05:00 -1°C° 0 mm 4 m/s 750 mmHg 76%
06:00 -1°C° 0 mm 5 m/s 750 mmHg 73%
07:00 -1°C° 0 mm 5 m/s 751 mmHg 70%
08:00 -1°C° 0 mm 5 m/s 752 mmHg 67%
09:00 0°C° 0 mm 5 m/s 752 mmHg 60%
10:00 -1°C° 0 mm 6 m/s 752 mmHg 53%
11:00 +1°C° 0 mm 6 m/s 753 mmHg 45%
12:00 +1°C° 0 mm 6 m/s 753 mmHg 41%
13:00 +1°C° 0 mm 6 m/s 753 mmHg 37%
14:00 0°C° 0 mm 7 m/s 753 mmHg 33%
15:00 +1°C° 0 mm 6 m/s 753 mmHg 33%
16:00 +1°C° 0 mm 6 m/s 754 mmHg 33%
17:00 0°C° 0 mm 5 m/s 754 mmHg 33%
18:00 -1°C° 0 mm 4 m/s 754 mmHg 38%
19:00 -1°C° 0 mm 4 m/s 755 mmHg 44%
20:00 -1°C° 0 mm 3 m/s 756 mmHg 49%
21:00 -1°C° 0 mm 3 m/s 756 mmHg 51%
22:00 -2°C° 0 mm 3 m/s 756 mmHg 53%
23:00 -2°C° 0 mm 3 m/s 756 mmHg 55%

7 Mars, Dimanche

Heure Température Précipitation Vent Pression Humidité
00:00 -2°C° 0 mm 3 m/s 756 mmHg 56%
01:00 -2°C° 0 mm 2 m/s 756 mmHg 57%
02:00 -3°C° 0 mm 2 m/s 756 mmHg 58%
03:00 -3°C° 0 mm 2 m/s 756 mmHg 58%
04:00 -3°C° 0 mm 2 m/s 756 mmHg 59%
05:00 -3°C° 0 mm 2 m/s 755 mmHg 59%
06:00 -4°C° 0 mm 3 m/s 755 mmHg 56%
07:00 -2°C° 0 mm 3 m/s 755 mmHg 52%
08:00 -2°C° 0 mm 3 m/s 755 mmHg 49%
09:00 -1°C° 0 mm 4 m/s 755 mmHg 44%
10:00 0°C° 0 mm 5 m/s 754 mmHg 39%
11:00 +1°C° 0 mm 5 m/s 754 mmHg 35%
12:00 +1°C° 0 mm 5 m/s 753 mmHg 34%
13:00 +2°C° 0 mm 5 m/s 752 mmHg 34%
14:00 +3°C° 0 mm 6 m/s 752 mmHg 33%
15:00 +3°C° 0 mm 5 m/s 751 mmHg 35%
16:00 +3°C° 0 mm 5 m/s 750 mmHg 37%
17:00 +3°C° 0 mm 4 m/s 749 mmHg 39%
18:00 +2°C° 0 mm 3 m/s 749 mmHg 43%
19:00 +1°C° 0 mm 3 m/s 749 mmHg 47%
20:00 +1°C° 0 mm 2 m/s 749 mmHg 50%
21:00 +1°C° 0 mm 2 m/s 749 mmHg 49%
22:00 +1°C° 0 mm 2 m/s 749 mmHg 48%
23:00 +1°C° 0 mm 1 m/s 749 mmHg 47%

8 Mars, Lundi

Heure Température Précipitation Vent Pression Humidité
00:00 +1°C° 0 mm 1 m/s 748 mmHg 48%
01:00 -1°C° 0 mm 2 m/s 748 mmHg 49%
02:00 -1°C° 0 mm 2 m/s 748 mmHg 50%
03:00 -1°C° 0 mm 2 m/s 748 mmHg 50%
04:00 -1°C° 0 mm 2 m/s 747 mmHg 51%
05:00 -1°C° 0 mm 2 m/s 747 mmHg 52%
06:00 -1°C° 0 mm 2 m/s 747 mmHg 50%
07:00 +1°C° 0 mm 2 m/s 747 mmHg 47%
08:00 +2°C° 0 mm 2 m/s 747 mmHg 45%
09:00 +3°C° 0 mm 2 m/s 747 mmHg 42%
10:00 +3°C° 0 mm 3 m/s 747 mmHg 40%
11:00 +5°C° 0 mm 3 m/s 747 mmHg 37%
12:00 +5°C° 0 mm 3 m/s 747 mmHg 36%
13:00 +7°C° 0 mm 3 m/s 747 mmHg 34%
14:00 +6°C° 0 mm 4 m/s 746 mmHg 33%
15:00 +7°C° 0 mm 3 m/s 746 mmHg 34%
16:00 +7°C° 0 mm 3 m/s 746 mmHg 36%
17:00 +7°C° 0 mm 2 m/s 745 mmHg 37%
18:00 +6°C° 0 mm 2 m/s 746 mmHg 41%
19:00 +5°C° 0 mm 2 m/s 746 mmHg 44%
20:00 +4°C° 0 mm 2 m/s 746 mmHg 48%
21:00 +3°C° 0 mm 2 m/s 746 mmHg 50%
22:00 +3°C° 0 mm 2 m/s 746 mmHg 52%
23:00 +3°C° 0 mm 2 m/s 746 mmHg 53%

9 Mars, Mardi

Heure Température Précipitation Vent Pression Humidité
00:00 +1°C° 0 mm 3 m/s 747 mmHg 59%
01:00 +1°C° 0 mm 3 m/s 747 mmHg 65%
02:00 0°C° 0 mm 4 m/s 747 mmHg 71%
03:00 -1°C° 0 mm 4 m/s 747 mmHg 72%
04:00 -2°C° 0 mm 5 m/s 748 mmHg 73%
05:00 -5°C° 0 mm 6 m/s 748 mmHg 74%
06:00 -5°C° 0 mm 6 m/s 749 mmHg 72%
07:00 -4°C° 0 mm 6 m/s 750 mmHg 70%
08:00 -4°C° 0 mm 7 m/s 750 mmHg 68%
09:00 -4°C° 0 mm 7 m/s 751 mmHg 60%
10:00 -3°C° 0 mm 7 m/s 751 mmHg 53%
11:00 -3°C° 0 mm 7 m/s 752 mmHg 46%
12:00 -2°C° 0 mm 6 m/s 752 mmHg 44%
13:00 -2°C° 0 mm 6 m/s 753 mmHg 43%
14:00 -2°C° 0 mm 6 m/s 753 mmHg 41%
15:00 -2°C° 0 mm 6 m/s 753 mmHg 41%
16:00 -3°C° 0 mm 6 m/s 753 mmHg 41%
17:00 -2°C° 0 mm 5 m/s 753 mmHg 41%
18:00 -4°C° 0 mm 5 m/s 754 mmHg 43%
19:00 -4°C° 0 mm 4 m/s 754 mmHg 46%
20:00 -5°C° 0 mm 4 m/s 755 mmHg 49%
21:00 -5°C° 0 mm 4 m/s 755 mmHg 49%
22:00 -5°C° 0 mm 4 m/s 756 mmHg 48%
23:00 -7°C° 0 mm 4 m/s 756 mmHg 47%
Voir plus

Nous avons besoin de votre consentement

Meteoprog et ses fournisseurs de services peuvent stocker et accéder à des données personnelles telles que des cookies, des identifiants d'appareils ou d'autres technologies similaires sur votre appareil et traiter ces données pour personnaliser le contenu et les publicités, ainsi que pour fournir des fonctionnalités de médias sociaux et analyser le trafic.

  • Stocker et/ou accéder à des informations sur votre appareil

    Des cookies, des identifiants d'appareils ou d'autres informations peuvent être stockés ou accessibles sur votre appareil aux fins indiquées ci-dessus.

  • Annonces et contenus personnalisés, mesure des annonces et des contenus, connaissance de l'audience et développement de produits

    Les annonces et le contenu peuvent être personnalisés en fonction d'un profil. D'autres données peuvent être ajoutées pour mieux personnaliser les annonces et le contenu. Les performances des publicités et du contenu peuvent être mesurées. Il est possible d'obtenir des informations sur le public qui a vu les publicités et le contenu. Ces données peuvent être utilisées pour développer ou améliorer l'expérience de l'utilisateur, les systèmes et les logiciels.

En cliquant sur "J'accepte", vous autorisez l'utilisation de cookies, des identifiants d'appareils, des balises web ou d'autres technologies similaires. Vos paramètres peuvent être modifiés dans le navigateur de votre appareil.

Dans certains cas, des intérêts légitimes peuvent être invoqués plutôt qu'un consentement. Vous pouvez en savoir plus à ce sujet dans notre Politique de confidentialité et de cookies.